Regional Weather Roundup
Issued by NWS

Home | Current Version | Previous Version | Text Only | Print | Product List | Glossary Off
Versions: 1 2 3 4 5 6 7 8 9 10 11 12 13 14 15 16 17 18 19 20 21 22 23 24 25 26 27 28 29 30 31 32 33 34 35 36 37 38 39 40 41 42 43 44 45 46 47 48 49 50

000
ASUS45 KBOI 301110
RWRID
WEATHER ROUNDUP FOR IDAHO
NATIONAL WEATHER SERVICE BOISE ID
500 AM MDT WED JUL 30 2014

NOTE: "FAIR" INDICATES FEW OR NO CLOUDS BELOW 12000 FEET
WITH NO SIGNIFICANT WEATHER AND/OR OBSTRUCTIONS TO VISIBILITY

IDZ012-014-301200-
SOUTHWEST IDAHO


CITY           SKY/WX    TMP DP  RH WIND       PRES   REMARKS
BOISE          MOCLDY    76  51  41 SE7       30.09F
CALDWELL       MOCLDY    68  48  49 SW5       30.10F
MOUNTAIN HOME  CLOUDY    68  57  67 E5        30.10F
$$

IDZ016-017-301200-
SOUTHCENTRAL IDAHO


CITY           SKY/WX    TMP DP  RH WIND       PRES   REMARKS
BURLEY         PTCLDY    58  53  84 S5        30.20R
JEROME         CLOUDY    61  55  81 E6        30.20R
TWIN FALLS     CLOUDY    62  53  72 S6        30.20S
$$

IDZ019>023-301200-
SOUTHEAST IDAHO


CITY           SKY/WX    TMP DP  RH WIND       PRES   REMARKS
IDAHO FALLS    MOCLDY    55  52  89 CALM      30.24R
POCATELLO      CLEAR     55  53  93 NW7       30.22R
REXBURG        MOCLDY    58  52  80 NE3       30.24S
$$

IDZ006-010-011-018-031-032-301200-
CENTRAL IDAHO MOUNTAINS


CITY           SKY/WX    TMP DP  RH WIND       PRES   REMARKS
MCCALL         CLEAR     57  44  62 NE3       30.25S
HAILEY         MOCLDY    59  52  77 N3        30.28R
STANLEY          N/A     50  43  77 CALM      30.36R
SALMON         MOCLDY    57  50  77 CALM      30.21S
CHALLIS        MOCLDY    59  46  62 SE5       30.26R
$$

IDZ002-004-006-007-026-301200-
NORTHERN IDAHO


CITY           SKY/WX    TMP DP  RH WIND       PRES   REMARKS
LEWISTON       CLEAR     75  38  26 NE5       29.99R
LOWELL           N/A     61  55  81 CALM      30.08R
COEUR D`ALENE  CLEAR     64  52  63 S8        30.04R
MULLAN PASS    MOCLDY    70  36  28 S6        30.29R
$$



USA.gov is the U.S. government's official web portal to all federal, state and local government web resources and services.